,,PA_Meas_PMT16A,,PR_Meas_QMR101_102,,RH_Meas_QMH101,,SR_Meas_QMS101,,TA_Meas_QMH101,,GenWind,,GenWind,
time,status,PA,status,PR,status,RH,status,SR,status,TA,status,DirAvg,status,SpdAvg,
2013-06-05, 00:00:04,VALID,918.065,VALID,0,VALID,94.073,VALID,0.107441,VALID,18.8059,VALID,95,VALID,0,
2013-06-05, 00:01:04,VALID,918.06,VALID,0,VALID,93.9357,VALID,0,VALID,18.7864,VALID,94,VALID,0,
2013-06-05, 00:02:04,VALID,918.033,VALID,0,VALID,93.7147,VALID,0,VALID,18.7864,VALID,94,VALID,0,
2013-06-05, 00:03:04,VALID,918.029,VALID,0,VALID,93.425,VALID,0,VALID,18.7864,VALID,110,VALID,0,
2013-06-05, 00:04:04,VALID,918.017,VALID,0,VALID,93.0972,VALID,0.107441,VALID,18.8059,VALID,112,VALID,0,
2013-06-05, 00:05:04,VALID,918.013,VALID,0,VALID,92.7084,VALID,0,VALID,18.8449,VALID,108,VALID,0,
2013-06-05, 00:06:04,VALID,918.003,VALID,0,VALID,92.4949,VALID,0,VALID,18.8449,VALID,108,VALID,0,
2013-06-05, 00:07:04,VALID,917.962,VALID,0,VALID,92.3882,VALID,0,VALID,18.8463,VALID,111,VALID,0,
2013-06-05, 00:08:04,VALID,917.976,VALID,0,VALID,92.3043,VALID,0,VALID,18.8254,VALID,111,VALID,0,
2013-06-05, 00:09:04,VALID,917.932,VALID,0,VALID,92.3577,VALID,0,VALID,18.8254,VALID,111,VALID,0,
2013-06-05, 00:10:04,VALID,917.915,VALID,0,VALID,92.4492,VALID,0,VALID,18.8254,VALID,109,VALID,0,
2013-06-05, 00:11:04,VALID,917.904,VALID,0,VALID,92.594,VALID,0,VALID,18.7864,VALID,108,VALID,0,
2013-06-05, 00:12:04,VALID,917.878,VALID,0,VALID,92.7007,VALID,0,VALID,18.7683,VALID,108,VALID,0,
2013-06-05, 00:13:04,VALID,917.874,VALID,0,VALID,92.8151,VALID,0,VALID,18.7488,VALID,108,VALID,0,
2013-06-05, 00:14:04,VALID,917.852,VALID,0,VALID,92.9447,VALID,0,VALID,18.7488,VALID,108,VALID,0,
2013-06-05, 00:15:04,VALID,917.836,VALID,0,VALID,92.9981,VALID,0,VALID,18.7474,VALID,109,VALID,0,
2013-06-05, 00:16:04,VALID,917.795,VALID,0,VALID,92.9599,VALID,0,VALID,18.7474,VALID,112,VALID,0,
2013-06-05, 00:17:04,VALID,917.767,VALID,0,VALID,92.9904,VALID,0,VALID,18.7683,VALID,112,VALID,0,
2013-06-05, 00:18:04,VALID,917.756,VALID,0,VALID,93.0667,VALID,0,VALID,18.7084,VALID,121,VALID,0,
2013-06-05, 00:19:04,VALID,917.752,VALID,0,VALID,93.1353,VALID,0,VALID,18.7293,VALID,139,VALID,0,
2013-06-05, 00:20:04,VALID,917.724,VALID,0,VALID,93.1429,VALID,0,VALID,18.7293,VALID,137,VALID,0,
2013-06-05, 00:21:04,VALID,917.708,VALID,0,VALID,93.2344,VALID,0,VALID,18.6889,VALID,137,VALID,0,
2013-06-05, 00:22:04,VALID,917.68,VALID,0,VALID,93.2268,VALID,0,VALID,18.7098,VALID,127,VALID,0,
2013-06-05, 00:23:04,VALID,917.69,VALID,0,VALID,93.1963,VALID,0,VALID,18.7098,VALID,130,VALID,0,
2013-06-05, 00:24:04,VALID,917.667,VALID,0,VALID,93.1581,VALID,0,VALID,18.6889,VALID,124,VALID,0,
2013-06-05, 00:25:04,VALID,917.687,VALID,0,VALID,93.0209,VALID,0,VALID,18.7084,VALID,134,VALID,0,
2013-06-05, 00:26:04,VALID,917.703,VALID,0,VALID,92.8913,VALID,0,VALID,18.7279,VALID,128,VALID,0,
2013-06-05, 00:27:04,VALID,917.653,VALID,0,VALID,92.7007,VALID,0,VALID,18.7474,VALID,119,VALID,0,
2013-06-05, 00:28:04,VALID,917.643,VALID,0,VALID,92.655,VALID,0,VALID,18.7474,VALID,127,VALID,0,
2013-06-05, 00:29:04,VALID,917.637,VALID,0,VALID,92.716,VALID,0,VALID,18.7474,VALID,130,VALID,0,
2013-06-05, 00:30:04,VALID,917.605,VALID,0,VALID,92.8761,VALID,0,VALID,18.7279,VALID,123,VALID,0,
2013-06-05, 00:31:04,VALID,917.623,VALID,0,VALID,92.9981,VALID,0,VALID,18.7279,VALID,132,VALID,0,
2013-06-05, 00:32:04,VALID,917.576,VALID,0,VALID,93.12,VALID,0,VALID,18.7084,VALID,132,VALID,0,
2013-06-05, 00:33:04,VALID,917.582,VALID,0,VALID,93.1886,VALID,0,VALID,18.7098,VALID,124,VALID,0,
2013-06-05, 00:34:04,VALID,917.592,VALID,0,VALID,93.2954,VALID,0,VALID,18.6694,VALID,124,VALID,0,
2013-06-05, 00:35:04,VALID,917.55,VALID,0,VALID,93.4021,VALID,0,VALID,18.6499,VALID,116,VALID,0,
2013-06-05, 00:36:04,VALID,917.577,VALID,0,VALID,93.4783,VALID,0,VALID,18.6304,VALID,116,VALID,0,
2013-06-05, 00:37:04,VALID,917.58,VALID,0,VALID,93.5469,VALID,0,VALID,18.6124,VALID,120,VALID,0,
2013-06-05, 00:38:04,VALID,917.546,VALID,0,VALID,93.6003,VALID,0,VALID,18.6124,VALID,122,VALID,0,
2013-06-05, 00:39:04,VALID,917.564,VALID,0,VALID,93.5698,VALID,0,VALID,18.5914,VALID,123,VALID,0,
2013-06-05, 00:40:04,VALID,917.551,VALID,0,VALID,93.5546,VALID,0,VALID,18.5929,VALID,123,VALID,0,
2013-06-05, 00:41:04,VALID,917.533,VALID,0,VALID,93.5164,VALID,0,VALID,18.5929,VALID,123,VALID,0,
2013-06-05, 00:42:04,VALID,917.531,VALID,0,VALID,93.5012,VALID,0,VALID,18.5734,VALID,121,VALID,0,
2013-06-05, 00:43:04,VALID,917.534,VALID,0,VALID,93.4707,VALID,0,VALID,18.5929,VALID,121,VALID,0,
2013-06-05, 00:44:04,VALID,917.534,VALID,0,VALID,93.4478,VALID,0,VALID,18.572,VALID,118,VALID,0,
2013-06-05, 00:45:04,VALID,917.531,VALID,0,VALID,93.3259,VALID,0,VALID,18.5525,VALID,115,VALID,0,
2013-06-05, 00:46:04,VALID,917.523,VALID,0,VALID,93.0438,VALID,0,VALID,18.6124,VALID,122,VALID,0,
2013-06-05, 00:47:04,VALID,917.506,VALID,0,VALID,92.838,VALID,0,VALID,18.6109,VALID,126,VALID,0,
2013-06-05, 00:48:04,VALID,917.513,VALID,0,VALID,92.533,VALID,0,VALID,18.6304,VALID,126,VALID,0,
2013-06-05, 00:49:04,VALID,917.484,VALID,0,VALID,92.4187,VALID,0,VALID,18.6708,VALID,126,VALID,0,
2013-06-05, 00:50:04,VALID,917.43,VALID,0,VALID,92.2967,VALID,0,VALID,18.6708,VALID,126,VALID,0,
2013-06-05, 00:51:04,VALID,917.425,VALID,0,VALID,91.9613,VALID,0,VALID,18.6903,VALID,126,VALID,0,
2013-06-05, 00:52:04,VALID,917.392,VALID,0,VALID,91.7707,VALID,0,VALID,18.6499,VALID,127,VALID,0,
2013-06-05, 00:53:04,VALID,917.379,VALID,0,VALID,91.7707,VALID,0,VALID,18.6708,VALID,129,VALID,0,
2013-06-05, 00:54:04,VALID,917.365,VALID,0,VALID,91.7707,VALID,0,VALID,18.6499,VALID,129,VALID,0,
2013-06-05, 00:55:04,VALID,917.384,VALID,0,VALID,91.7707,VALID,0,VALID,18.6499,VALID,130,VALID,0,
2013-06-05, 00:56:04,VALID,917.315,VALID,0,VALID,91.7249,VALID,0,VALID,18.6903,VALID,129,VALID,0,
2013-06-05, 00:57:04,VALID,917.306,VALID,0,VALID,91.664,VALID,0,VALID,18.6889,VALID,130,VALID,0,
2013-06-05, 00:58:04,VALID,917.285,VALID,0,VALID,91.6868,VALID,0,VALID,18.7098,VALID,130,VALID,0,
2013-06-05, 00:59:04,VALID,917.267,VALID,0,VALID,91.5953,VALID,0,VALID,18.7098,VALID,130,VALID,0,
2013-06-05, 01:00:04,VALID,917.227,VALID,0,VALID,91.6258,VALID,0,VALID,18.6889,VALID,130,VALID,0,
2013-06-05, 01:01:04,VALID,917.197,VALID,0,VALID,91.7021,VALID,0,VALID,18.6889,VALID,129,VALID,0,
2013-06-05, 01:02:04,VALID,917.206,VALID,0,VALID,91.6258,VALID,0,VALID,18.6499,VALID,129,VALID,0,
2013-06-05, 01:03:04,VALID,917.183,VALID,0,VALID,91.6563,VALID,0,VALID,18.6513,VALID,129,VALID,0,
2013-06-05, 01:04:04,VALID,917.173,VALID,0,VALID,91.481,VALID,0,VALID,18.6304,VALID,129,VALID,0,
2013-06-05, 01:05:04,VALID,917.156,VALID,0,VALID,90.9169,VALID,0,VALID,18.6694,VALID,130,VALID,0,
2013-06-05, 01:06:04,VALID,917.138,VALID,0,VALID,90.1774,VALID,0,VALID,18.6889,VALID,129,VALID,0,
2013-06-05, 01:07:04,VALID,917.126,VALID,0,VALID,89.2473,VALID,0,VALID,18.7878,VALID,125,VALID,0,
2013-06-05, 01:08:04,VALID,917.112,VALID,0,VALID,88.7823,VALID,0,VALID,18.8449,VALID,132,VALID,0,
2013-06-05, 01:09:04,VALID,917.121,VALID,0,VALID,88.241,VALID,0,VALID,18.9048,VALID,132,VALID,0,
2013-06-05, 01:10:04,VALID,917.111,VALID,0,VALID,88.302,VALID,0,VALID,18.9438,VALID,131,VALID,0,
2013-06-05, 01:11:04,VALID,917.081,VALID,0,VALID,88.7289,VALID,0,VALID,18.9438,VALID,131,VALID,0,
2013-06-05, 01:12:04,VALID,917.054,VALID,0,VALID,88.9958,VALID,0,VALID,18.8853,VALID,131,VALID,0,
2013-06-05, 01:13:04,VALID,917.031,VALID,0,VALID,89.0872,VALID,0,VALID,18.8254,VALID,131,VALID,0,
2013-06-05, 01:14:04,VALID,916.997,VALID,0,VALID,89.0644,VALID,0,VALID,18.8268,VALID,126,VALID,0,
2013-06-05, 01:15:04,VALID,916.995,VALID,0,VALID,88.9729,VALID,0,VALID,18.8073,VALID,114,VALID,0,
2013-06-05, 01:16:04,VALID,916.961,VALID,0,VALID,88.5612,VALID,0,VALID,18.7864,VALID,114,VALID,0,
2013-06-05, 01:17:04,VALID,916.929,VALID,0,VALID,88.5688,VALID,0,VALID,18.8463,VALID,116,VALID,0,
2013-06-05, 01:18:04,VALID,916.913,VALID,0,VALID,88.2563,VALID,0,VALID,18.8658,VALID,122,VALID,0,
2013-06-05, 01:19:04,VALID,916.888,VALID,0,VALID,88.1953,VALID,0,VALID,18.8853,VALID,125,VALID,0,
2013-06-05, 01:20:04,VALID,916.873,VALID,0,VALID,88.7899,VALID,0,VALID,18.8449,VALID,118,VALID,0,
2013-06-05, 01:21:04,VALID,916.859,VALID,0,VALID,89.0034,VALID,0,VALID,18.8059,VALID,118,VALID,0,
2013-06-05, 01:22:04,VALID,916.815,VALID,0,VALID,89.415,VALID,0,VALID,18.7683,VALID,118,VALID,0,
2013-06-05, 01:23:04,VALID,916.815,VALID,0,VALID,89.7429,VALID,0,VALID,18.7098,VALID,121,VALID,0,
2013-06-05, 01:24:04,VALID,916.819,VALID,0,VALID,89.9639,VALID,0,VALID,18.6708,VALID,129,VALID,0,
2013-06-05, 01:25:04,VALID,916.778,VALID,0,VALID,89.9258,VALID,0,VALID,18.6708,VALID,129,VALID,0,
2013-06-05, 01:26:04,VALID,916.799,VALID,0,VALID,90.3832,VALID,0,VALID,18.6903,VALID,129,VALID,0,
2013-06-05, 01:27:04,VALID,916.76,VALID,0,VALID,90.711,VALID,0,VALID,18.6694,VALID,129,VALID,0,
2013-06-05, 01:28:04,VALID,916.703,VALID,0,VALID,90.8635,VALID,0,VALID,18.6903,VALID,129,VALID,0,
2013-06-05, 01:29:04,VALID,916.684,VALID,0,VALID,90.6195,VALID,0,VALID,18.6513,VALID,129,VALID,0,
2013-06-05, 01:30:04,VALID,916.652,VALID,0,VALID,90.5204,VALID,0,VALID,18.6109,VALID,129,VALID,0,
2013-06-05, 01:31:04,VALID,916.668,VALID,0,VALID,90.6272,VALID,0,VALID,18.6304,VALID,129,VALID,0,
2013-06-05, 01:32:04,VALID,916.607,VALID,0,VALID,90.7949,VALID,0,VALID,18.6319,VALID,129,VALID,0,
2013-06-05, 01:33:04,VALID,916.657,VALID,0,VALID,90.3375,VALID,0,VALID,18.572,VALID,129,VALID,0,
2013-06-05, 01:34:04,VALID,916.597,VALID,0,VALID,90.3451,VALID,0,VALID,18.6513,VALID,129,VALID,0,
2013-06-05, 01:35:04,VALID,916.587,VALID,0,VALID,90.4213,VALID,0,VALID,18.6304,VALID,129,VALID,0,
2013-06-05, 01:36:04,VALID,916.579,VALID,0,VALID,90.429,VALID,0,VALID,18.6304,VALID,129,VALID,0,
2013-06-05, 01:37:04,VALID,916.581,VALID,0,VALID,89.9334,VALID,0,VALID,18.6109,VALID,129,VALID,0,
2013-06-05, 01:38:04,VALID,916.562,VALID,0,VALID,89.6133,VALID,0,VALID,18.6513,VALID,129,VALID,0,
2013-06-05, 01:39:04,VALID,916.574,VALID,0,VALID,89.2473,VALID,0,VALID,18.6304,VALID,129,VALID,0,
2013-06-05, 01:40:04,VALID,916.578,VALID,0,VALID,89.3236,VALID,0,VALID,18.6109,VALID,129,VALID,0,
2013-06-05, 01:41:04,VALID,916.569,VALID,0,VALID,89.1863,VALID,0,VALID,18.6109,VALID,129,VALID,0,
2013-06-05, 01:42:04,VALID,916.56,VALID,0,VALID,89.3846,VALID,0,VALID,18.5914,VALID,129,VALID,0,
2013-06-05, 01:43:04,VALID,916.558,VALID,0,VALID,89.7276,VALID,0,VALID,18.5914,VALID,147,VALID,0,
2013-06-05, 01:44:04,VALID,916.544,VALID,0,VALID,89.8953,VALID,0,VALID,18.572,VALID,136,VALID,0,
2013-06-05, 01:45:04,VALID,916.563,VALID,0,VALID,89.537,VALID,0,VALID,18.572,VALID,130,VALID,0,
2013-06-05, 01:46:04,VALID,916.573,VALID,0,VALID,89.2702,VALID,0,VALID,18.5734,VALID,129,VALID,0,
2013-06-05, 01:47:04,VALID,916.531,VALID,0,VALID,89.3312,VALID,0,VALID,18.5135,VALID,132,VALID,0,
2013-06-05, 01:48:04,VALID,916.526,VALID,0,VALID,89.2931,VALID,0,VALID,18.4954,VALID,132,VALID,0,
2013-06-05, 01:49:04,VALID,916.495,VALID,0,VALID,89.2397,VALID,0,VALID,18.4759,VALID,143,VALID,0,
2013-06-05, 01:50:04,VALID,916.485,VALID,0,VALID,89.4227,VALID,0,VALID,18.4745,VALID,136,VALID,0,
2013-06-05, 01:51:04,VALID,916.481,VALID,0,VALID,89.659,VALID,0,VALID,18.455,VALID,140,VALID,0,
2013-06-05, 01:52:04,VALID,916.457,VALID,0,VALID,89.7505,VALID,0,VALID,18.4759,VALID,130,VALID,0,
2013-06-05, 01:53:04,VALID,916.478,VALID,0,VALID,89.6133,VALID,0,VALID,18.4369,VALID,128,VALID,0,
2013-06-05, 01:54:04,VALID,916.422,VALID,0,VALID,89.194,VALID,0,VALID,18.4564,VALID,128,VALID,0,
2013-06-05, 01:55:04,VALID,916.407,VALID,0,VALID,88.7289,VALID,0,VALID,18.4564,VALID,130,VALID,0,
2013-06-05, 01:56:04,VALID,916.383,VALID,0,VALID,88.7823,VALID,0,VALID,18.455,VALID,128,VALID,0,
2013-06-05, 01:57:04,VALID,916.361,VALID,0,VALID,88.7061,VALID,0,VALID,18.4369,VALID,129,VALID,0,
2013-06-05, 01:58:04,VALID,916.352,VALID,0,VALID,87.9742,VALID,0,VALID,18.4745,VALID,129,VALID,0,
2013-06-05, 01:59:04,VALID,916.332,VALID,0,VALID,87.837,VALID,0,VALID,18.5149,VALID,129,VALID,0,
2013-06-05, 02:00:04,VALID,916.309,VALID,0,VALID,88.1801,VALID,0,VALID,18.4745,VALID,129,VALID,0,
2013-06-05, 02:01:04,VALID,916.293,VALID,0,VALID,88.9119,VALID,0,VALID,18.4759,VALID,129,VALID,0,
2013-06-05, 02:02:04,VALID,916.316,VALID,0,VALID,88.9424,VALID,0,VALID,18.3965,VALID,129,VALID,0,
2013-06-05, 02:03:04,VALID,916.317,VALID,0,VALID,89.5599,VALID,0,VALID,18.3784,VALID,129,VALID,0,
2013-06-05, 02:04:04,VALID,916.32,VALID,0,VALID,90.1012,VALID,0,VALID,18.2796,VALID,129,VALID,0,
2013-06-05, 02:05:04,VALID,916.353,VALID,0,VALID,90.5738,VALID,0,VALID,18.2016,VALID,129,VALID,0,
2013-06-05, 02:06:04,VALID,916.352,VALID,0,VALID,90.5967,VALID,0,VALID,18.1445,VALID,129,VALID,0,
2013-06-05, 02:07:04,VALID,916.342,VALID,0,VALID,90.4137,VALID,0,VALID,18.1055,VALID,129,VALID,0,
2013-06-05, 02:08:04,VALID,916.379,VALID,0,VALID,90.2689,VALID,0,VALID,18.0651,VALID,129,VALID,0,
2013-06-05, 02:09:04,VALID,916.382,VALID,0,VALID,90.1469,VALID,0,VALID,18.0262,VALID,129,VALID,0,
2013-06-05, 02:10:04,VALID,916.379,VALID,0,VALID,90.2917,VALID,0,VALID,18.008,VALID,129,VALID,0,
2013-06-05, 02:11:04,VALID,916.342,VALID,0,VALID,90.1545,VALID,0,VALID,17.9482,VALID,122,VALID,0,
2013-06-05, 02:12:04,VALID,916.372,VALID,0,VALID,89.4532,VALID,0,VALID,17.9886,VALID,117,VALID,0,
2013-06-05, 02:13:04,VALID,916.351,VALID,0,VALID,88.8433,VALID,0,VALID,18.0262,VALID,128,VALID,0,
2013-06-05, 02:14:04,VALID,916.348,VALID,0,VALID,88.6222,VALID,0,VALID,18.1055,VALID,125,VALID,0,
2013-06-05, 02:15:04,VALID,916.386,VALID,0,VALID,88.9576,VALID,0,VALID,18.125,VALID,118,VALID,0,
2013-06-05, 02:16:04,VALID,916.411,VALID,0,VALID,89.3236,VALID,0,VALID,18.0651,VALID,120,VALID,0,
2013-06-05, 02:17:04,VALID,916.384,VALID,0,VALID,89.9029,VALID,0,VALID,18.0067,VALID,110,VALID,0,
2013-06-05, 02:18:04,VALID,916.415,VALID,0,VALID,90.2841,VALID,0,VALID,17.9482,VALID,110,VALID,0,
2013-06-05, 02:19:04,VALID,916.405,VALID,0,VALID,90.5586,VALID,0,VALID,17.9287,VALID,110,VALID,0,
2013-06-05, 02:20:04,VALID,916.427,VALID,0,VALID,90.7949,VALID,0,VALID,17.9886,VALID,110,VALID,0,
2013-06-05, 02:21:04,VALID,916.422,VALID,0,VALID,90.9855,VALID,0,VALID,18.047,VALID,110,VALID,0,
2013-06-05, 02:22:04,VALID,916.414,VALID,0,VALID,91.016,VALID,0,VALID,18.086,VALID,115,VALID,0,
2013-06-05, 02:23:04,VALID,916.443,VALID,0,VALID,90.9855,VALID,0,VALID,18.125,VALID,126,VALID,0,
2013-06-05, 02:24:04,VALID,916.43,VALID,0,VALID,90.65,VALID,0,VALID,18.164,VALID,126,VALID,0,
2013-06-05, 02:25:04,VALID,916.427,VALID,0,VALID,90.0859,VALID,0,VALID,18.2615,VALID,127,VALID,0,
2013-06-05, 02:26:04,VALID,916.404,VALID,0,VALID,89.2626,VALID,0,VALID,18.3589,VALID,126,VALID,0,
2013-06-05, 02:27:04,VALID,916.334,VALID,0,VALID,88.6908,VALID,0,VALID,18.3965,VALID,126,VALID,0,
2013-06-05, 02:28:04,VALID,916.338,VALID,0,VALID,88.1038,VALID,0,VALID,18.4564,VALID,126,VALID,0,
2013-06-05, 02:29:04,VALID,916.298,VALID,0,VALID,87.7303,VALID,0,VALID,18.4954,VALID,126,VALID,0,
2013-06-05, 02:30:04,VALID,916.29,VALID,0,VALID,86.8764,VALID,0,VALID,18.5149,VALID,126,VALID,0,
2013-06-05, 02:31:04,VALID,916.268,VALID,0,VALID,86.1827,VALID,0,VALID,18.5539,VALID,126,VALID,0,
2013-06-05, 02:32:04,VALID,916.26,VALID,0,VALID,85.1307,VALID,0,VALID,18.6319,VALID,126,VALID,0,
2013-06-05, 02:33:04,VALID,916.253,VALID,0,VALID,83.9033,VALID,0,VALID,18.7488,VALID,126,VALID,0,
2013-06-05, 02:34:04,VALID,916.262,VALID,0,VALID,83.6517,VALID,0,VALID,18.8463,VALID,126,VALID,0,
2013-06-05, 02:35:04,VALID,916.239,VALID,0,VALID,82.6988,VALID,0,VALID,18.9243,VALID,126,VALID,0,
2013-06-05, 02:36:04,VALID,916.232,VALID,0,VALID,82.2795,VALID,0,VALID,19.0023,VALID,126,VALID,0,
2013-06-05, 02:37:04,VALID,916.228,VALID,0,VALID,83.9872,VALID,0,VALID,18.9814,VALID,126,VALID,0,
2013-06-05, 02:38:04,VALID,916.217,VALID,0,VALID,85.0545,VALID,0,VALID,18.8463,VALID,126,VALID,0,
2013-06-05, 02:39:04,VALID,916.196,VALID,0,VALID,85.9693,VALID,0,VALID,18.6499,VALID,126,VALID,0,
2013-06-05, 02:40:04,VALID,916.192,VALID,0,VALID,86.48,VALID,0,VALID,18.5149,VALID,126,VALID,0,
2013-06-05, 02:41:04,VALID,916.161,VALID,0,VALID,86.5486,VALID,0,VALID,18.3575,VALID,126,VALID,0,
2013-06-05, 02:42:04,VALID,916.147,VALID,0,VALID,86.3428,VALID,0,VALID,18.2809,VALID,126,VALID,0,
2013-06-05, 02:43:04,VALID,916.143,VALID,0,VALID,86.9908,VALID,0,VALID,18.2016,VALID,126,VALID,0,
2013-06-05, 02:44:04,VALID,916.133,VALID,0,VALID,86.4343,VALID,0,VALID,18.1236,VALID,126,VALID,0,
2013-06-05, 02:45:04,VALID,916.109,VALID,0,VALID,86.2437,VALID,0,VALID,18.164,VALID,126,VALID,0,
2013-06-05, 02:46:04,VALID,916.124,VALID,0,VALID,86.6859,VALID,0,VALID,18.164,VALID,126,VALID,0,
2013-06-05, 02:47:04,VALID,916.136,VALID,0,VALID,86.8078,VALID,0,VALID,18.164,VALID,126,VALID,0,
2013-06-05, 02:48:04,VALID,916.145,VALID,0,VALID,87.4406,VALID,0,VALID,18.125,VALID,126,VALID,0,
2013-06-05, 02:49:04,VALID,916.168,VALID,0,VALID,87.8065,VALID,0,VALID,18.0665,VALID,126,VALID,0,
2013-06-05, 02:50:04,VALID,916.173,VALID,0,VALID,88.4621,VALID,0,VALID,17.9691,VALID,126,VALID,0,
2013-06-05, 02:51:04,VALID,916.158,VALID,0,VALID,88.424,VALID,0,VALID,17.8911,VALID,132,VALID,0,
2013-06-05, 02:52:04,VALID,916.195,VALID,0,VALID,88.9805,VALID,0,VALID,17.8911,VALID,136,VALID,0,
2013-06-05, 02:53:04,VALID,916.189,VALID,0,VALID,89.6056,VALID,0,VALID,17.8521,VALID,136,VALID,0,
2013-06-05, 02:54:04,VALID,916.21,VALID,0,VALID,89.9182,VALID,0,VALID,17.7936,VALID,135,VALID,0,
2013-06-05, 02:55:04,VALID,916.221,VALID,0,VALID,90.5586,VALID,0,VALID,17.7741,VALID,139,VALID,0,
2013-06-05, 02:56:04,VALID,916.227,VALID,0,VALID,90.8864,VALID,0,VALID,17.7741,VALID,139,VALID,0,
2013-06-05, 02:57:04,VALID,916.232,VALID,0,VALID,91.2523,VALID,0,VALID,17.7741,VALID,139,VALID,0,
2013-06-05, 02:58:04,VALID,916.224,VALID,0,VALID,91.6945,VALID,0,VALID,17.7547,VALID,139,VALID,0,
2013-06-05, 02:59:04,VALID,916.224,VALID,0,VALID,92.4034,VALID,0,VALID,17.7547,VALID,139,VALID,0,
2013-06-05, 03:00:04,VALID,916.203,VALID,0,VALID,92.3119,VALID,0,VALID,17.7352,VALID,131,VALID,0,
2013-06-05, 03:01:04,VALID,916.232,VALID,0,VALID,92.0223,VALID,0,VALID,17.7352,VALID,131,VALID,0,
2013-06-05, 03:02:04,VALID,916.194,VALID,0,VALID,91.6868,VALID,0,VALID,17.7352,VALID,133,VALID,0,
2013-06-05, 03:03:04,VALID,916.2,VALID,0,VALID,91.3819,VALID,0,VALID,17.8131,VALID,126,VALID,0,
2013-06-05, 03:04:04,VALID,916.22,VALID,0,VALID,91.0007,VALID,0,VALID,17.8326,VALID,119,VALID,0,
2013-06-05, 03:05:04,VALID,916.249,VALID,0,VALID,90.9245,VALID,0,VALID,17.8145,VALID,143,VALID,0,
2013-06-05, 03:06:04,VALID,916.259,VALID,0,VALID,90.8101,VALID,0,VALID,17.7936,VALID,138,VALID,0,
2013-06-05, 03:07:04,VALID,916.251,VALID,0,VALID,90.65,VALID,0,VALID,17.834,VALID,145,VALID,0,
2013-06-05, 03:08:04,VALID,916.286,VALID,0,VALID,90.2689,VALID,0,VALID,17.8521,VALID,145,VALID,0,
2013-06-05, 03:09:04,VALID,916.278,VALID,0,VALID,89.7733,VALID,0,VALID,17.8716,VALID,132,VALID,0,
2013-06-05, 03:10:04,VALID,916.266,VALID,0,VALID,89.1025,VALID,0,VALID,17.9314,VALID,131,VALID,0,
2013-06-05, 03:11:04,VALID,916.292,VALID,0,VALID,89.4532,VALID,0,VALID,18.0094,VALID,132,VALID,0,
2013-06-05, 03:12:04,VALID,916.35,VALID,0,VALID,89.476,VALID,0,VALID,17.9886,VALID,137,VALID,0,
2013-06-05, 03:13:04,VALID,916.34,VALID,0,VALID,89.5599,VALID,0,VALID,17.9899,VALID,159,VALID,0,
2013-06-05, 03:14:04,VALID,916.34,VALID,0,VALID,90.0325,VALID,0,VALID,17.8911,VALID,146,VALID,0,
2013-06-05, 03:15:04,VALID,916.346,VALID,0,VALID,90.063,VALID,0,VALID,17.8925,VALID,128,VALID,0,
2013-06-05, 03:16:04,VALID,916.342,VALID,0,VALID,89.6666,VALID,0,VALID,17.8911,VALID,137,VALID,0,
2013-06-05, 03:17:04,VALID,916.364,VALID,0,VALID,88.1953,VALID,0,VALID,17.9691,VALID,133,VALID,0,
2013-06-05, 03:18:04,VALID,916.368,VALID,0,VALID,87.6693,VALID,0,VALID,18.0275,VALID,132,VALID,0,
2013-06-05, 03:19:04,VALID,916.355,VALID,0,VALID,87.6845,VALID,0,VALID,18.0275,VALID,135,VALID,0,
2013-06-05, 03:20:04,VALID,916.393,VALID,0,VALID,87.2805,VALID,0,VALID,18.0275,VALID,132,VALID,0,
2013-06-05, 03:21:04,VALID,916.387,VALID,0,VALID,86.8383,VALID,0,VALID,18.047,VALID,120,VALID,0,
2013-06-05, 03:22:04,VALID,916.39,VALID,0,VALID,86.3581,VALID,0,VALID,18.047,VALID,128,VALID,0,
2013-06-05, 03:23:04,VALID,916.357,VALID,0,VALID,86.076,VALID,0,VALID,18.1069,VALID,136,VALID,0,
2013-06-05, 03:24:04,VALID,916.39,VALID,0,VALID,85.6796,VALID,0,VALID,18.086,VALID,128,VALID,0,
2013-06-05, 03:25:04,VALID,916.362,VALID,0,VALID,85.5119,VALID,0,VALID,18.1069,VALID,124,VALID,0,
2013-06-05, 03:26:04,VALID,916.38,VALID,0,VALID,84.8334,VALID,0,VALID,18.1445,VALID,122,VALID,0,
2013-06-05, 03:27:04,VALID,916.359,VALID,0,VALID,84.6962,VALID,0,VALID,18.2433,VALID,122,VALID,0,
2013-06-05, 03:28:04,VALID,916.361,VALID,0,VALID,84.6809,VALID,0,VALID,18.242,VALID,122,VALID,0,
2013-06-05, 03:29:04,VALID,916.373,VALID,0,VALID,84.6352,VALID,0,VALID,18.2433,VALID,133,VALID,0,
2013-06-05, 03:30:04,VALID,916.364,VALID,0,VALID,85.2298,VALID,0,VALID,18.1835,VALID,141,VALID,0,
2013-06-05, 03:31:04,VALID,916.348,VALID,0,VALID,84.3836,VALID,0,VALID,18.1835,VALID,141,VALID,0,
2013-06-05, 03:32:04,VALID,916.352,VALID,0,VALID,84.0329,VALID,0,VALID,18.203,VALID,141,VALID,0,
2013-06-05, 03:33:04,VALID,916.381,VALID,0,VALID,83.8347,VALID,0,VALID,18.2225,VALID,141,VALID,0,
2013-06-05, 03:34:04,VALID,916.333,VALID,0,VALID,83.7432,VALID,0,VALID,18.2615,VALID,140,VALID,0,
2013-06-05, 03:35:04,VALID,916.364,VALID,0,VALID,83.6441,VALID,0.107441,VALID,18.2615,VALID,132,VALID,0,
2013-06-05, 03:36:04,VALID,916.385,VALID,0,VALID,84.0024,VALID,0,VALID,18.2225,VALID,123,VALID,0,
2013-06-05, 03:37:04,VALID,916.371,VALID,0,VALID,83.6517,VALID,0,VALID,18.242,VALID,123,VALID,0,
2013-06-05, 03:38:04,VALID,916.384,VALID,0,VALID,83.0419,VALID,0.107441,VALID,18.3004,VALID,123,VALID,0,
2013-06-05, 03:39:04,VALID,916.383,VALID,0,VALID,82.3558,VALID,0,VALID,18.3589,VALID,123,VALID,0,
2013-06-05, 03:40:04,VALID,916.393,VALID,0,VALID,81.9746,VALID,0.107441,VALID,18.4578,VALID,123,VALID,0,
2013-06-05, 03:41:04,VALID,916.347,VALID,0,VALID,81.9288,VALID,0,VALID,18.4564,VALID,113,VALID,0,
2013-06-05, 03:42:04,VALID,916.348,VALID,0,VALID,81.5248,VALID,0,VALID,18.4355,VALID,122,VALID,0,
2013-06-05, 03:43:04,VALID,916.361,VALID,0,VALID,82.4549,VALID,0.107441,VALID,18.4369,VALID,131,VALID,0,
2013-06-05, 03:44:04,VALID,916.372,VALID,0,VALID,83.0266,VALID,0,VALID,18.3589,VALID,131,VALID,0,
2013-06-05, 03:45:04,VALID,916.38,VALID,0,VALID,84.3683,VALID,0,VALID,18.2809,VALID,138,VALID,0,
2013-06-05, 03:46:04,VALID,916.356,VALID,0,VALID,85.672,VALID,0,VALID,18.1654,VALID,139,VALID,0,
2013-06-05, 03:47:04,VALID,916.332,VALID,0,VALID,86.0226,VALID,0,VALID,18.0275,VALID,133,VALID,0,
2013-06-05, 03:48:04,VALID,916.315,VALID,0,VALID,86.1446,VALID,0,VALID,17.9301,VALID,131,VALID,0,
2013-06-05, 03:49:04,VALID,916.342,VALID,0,VALID,86.3962,VALID,0,VALID,17.8521,VALID,130,VALID,0,
2013-06-05, 03:50:04,VALID,916.301,VALID,0,VALID,86.3199,VALID,0,VALID,17.7728,VALID,126,VALID,0,
2013-06-05, 03:51:04,VALID,916.287,VALID,0,VALID,86.0303,VALID,0,VALID,17.7936,VALID,122,VALID,0,
2013-06-05, 03:52:04,VALID,916.28,VALID,0,VALID,85.771,VALID,0,VALID,17.8131,VALID,133,VALID,0,
2013-06-05, 03:53:04,VALID,916.235,VALID,0,VALID,85.7787,VALID,0,VALID,17.7923,VALID,128,VALID,0,
2013-06-05, 03:54:04,VALID,916.198,VALID,0,VALID,85.428,VALID,0,VALID,17.8911,VALID,135,VALID,0,
2013-06-05, 03:55:04,VALID,916.167,VALID,0,VALID,84.9706,VALID,0,VALID,17.9301,VALID,137,VALID,0,
2013-06-05, 03:56:04,VALID,916.176,VALID,0,VALID,84.0787,VALID,0,VALID,18.0275,VALID,121,VALID,0,
2013-06-05, 03:57:04,VALID,916.147,VALID,0,VALID,84.0634,VALID,0,VALID,18.0484,VALID,116,VALID,0,
2013-06-05, 03:58:04,VALID,916.142,VALID,0,VALID,83.8804,VALID,0,VALID,18.008,VALID,135,VALID,0,
2013-06-05, 03:59:04,VALID,916.127,VALID,0,VALID,83.0876,VALID,0,VALID,18.0665,VALID,122,VALID,0,